Station History

Weather Underground - logo

Station Historical Data
Daily Summary for July 27, 2017 Units:  English    Metric   Both
« Previous Day
Next Day »
Daily Weekly Monthly Yearly Custom
  High: Low: Average:
Temperature: 100.6 °F 69.3 °F 85.5 °F
Dew Point: 67.9 °F 59.9 °F 64.2 °F
Humidity: 84 % 28 % 53 %
Wind Speed: 6.9 mph 0.0 mph 1.6 mph
Wind Gust: 6.9 mph - -
Wind:- - SW
Pressure: 29.91 in 29.75 in -
Precipitation: 0.00 in    
Historical Graphs
 
 
Tabular Data for July 27, 2017
Time Temperature Dew Point Pressure Wind Wind Speed Wind Gust Humidity Rainfall Rate (Hourly)
00:03 77.5 °F 66.5 °F 29.86 in NE 1.2 mph   69 % 0.00 in
00:08 77.6 °F 67.0 °F 29.87 in NE 1.2 mph 1.2 mph 70 % 0.00 in
00:13 77.5 °F 66.5 °F 29.87 in Calm     69 % 0.00 in
00:18 77.4 °F 66.4 °F 29.86 in Calm     69 % 0.00 in
00:23 77.3 °F 66.7 °F 29.86 in Calm     70 % 0.00 in
00:28 77.4 °F 66.8 °F 29.87 in Calm   0.1 mph 70 % 0.00 in
00:33 77.5 °F 66.5 °F 29.87 in NE 1.2 mph 1.2 mph 69 % 0.00 in
00:38 77.7 °F 67.1 °F 29.87 in Calm     70 % 0.00 in
00:43 77.4 °F 66.8 °F 29.86 in Calm     70 % 0.00 in
00:48 77.0 °F 66.5 °F 29.86 in Calm     70 % 0.00 in
00:53 76.6 °F 66.5 °F 29.86 in Calm     71 % 0.00 in
00:58 76.4 °F 66.7 °F 29.87 in Calm     72 % 0.00 in
01:03 76.2 °F 66.5 °F 29.87 in Calm     72 % 0.00 in
01:08 75.9 °F 66.6 °F 29.87 in Calm     73 % 0.00 in
01:13 75.7 °F 66.8 °F 29.87 in Calm     74 % 0.00 in
01:18 75.4 °F 66.5 °F 29.87 in Calm     74 % 0.00 in
01:23 75.3 °F 66.8 °F 29.87 in Calm     75 % 0.00 in
01:28 75.1 °F 66.6 °F 29.88 in Calm     75 % 0.00 in
01:33 74.9 °F 66.8 °F 29.87 in Calm     76 % 0.00 in
01:38 74.8 °F 66.7 °F 29.87 in Calm     76 % 0.00 in
01:43 74.6 °F 66.5 °F 29.87 in Calm     76 % 0.00 in
01:48 74.4 °F 66.7 °F 29.87 in Calm     77 % 0.00 in
01:53 74.2 °F 66.9 °F 29.88 in Calm     78 % 0.00 in
01:58 74.0 °F 66.7 °F 29.88 in Calm     78 % 0.00 in
02:03 73.9 °F 66.6 °F 29.87 in Calm     78 % 0.00 in
02:08 74.0 °F 66.3 °F 29.87 in Calm     77 % 0.00 in
02:13 73.9 °F 66.2 °F 29.87 in Calm     77 % 0.00 in
02:18 73.8 °F 66.5 °F 29.87 in Calm     78 % 0.00 in
02:23 73.7 °F 66.4 °F 29.87 in Calm     78 % 0.00 in
02:28 73.4 °F 66.1 °F 29.87 in Calm     78 % 0.00 in
02:34 73.2 °F 65.9 °F 29.87 in Calm     78 % 0.00 in
02:39 73.0 °F 65.7 °F 29.87 in Calm     78 % 0.00 in
02:44 72.9 °F 65.6 °F 29.87 in Calm     78 % 0.00 in
02:45 73.0 °F 65.7 °F 29.87 in Calm     78 % 0.00 in
02:50 72.9 °F 65.6 °F 29.87 in Calm     78 % 0.00 in
02:55 72.7 °F 65.8 °F 29.87 in Calm     79 % 0.00 in
03:00 72.9 °F 65.6 °F 29.87 in Calm     78 % 0.00 in
03:05 73.2 °F 65.9 °F 29.87 in Calm     78 % 0.00 in
03:10 73.3 °F 66.0 °F 29.87 in Calm     78 % 0.00 in
03:15 73.1 °F 65.8 °F 29.87 in Calm     78 % 0.00 in
03:20 72.7 °F 65.8 °F 29.87 in Calm     79 % 0.00 in
03:25 72.5 °F 66.0 °F 29.87 in Calm     80 % 0.00 in
03:26 72.4 °F 65.9 °F 29.87 in Calm     80 % 0.00 in
03:31 72.2 °F 65.7 °F 29.87 in Calm     80 % 0.00 in
03:36 72.0 °F 65.5 °F 29.87 in Calm     80 % 0.00 in
03:41 71.9 °F 65.4 °F 29.87 in Calm     80 % 0.00 in
03:46 71.8 °F 65.3 °F 29.87 in Calm     80 % 0.00 in
03:51 71.8 °F 65.3 °F 29.87 in Calm     80 % 0.00 in
03:56 71.8 °F 65.3 °F 29.87 in Calm     80 % 0.00 in
04:01 71.7 °F 65.2 °F 29.87 in Calm     80 % 0.00 in
04:06 71.7 °F 65.6 °F 29.87 in Calm     81 % 0.00 in
04:11 71.6 °F 65.5 °F 29.87 in Calm     81 % 0.00 in
04:17 71.4 °F 65.3 °F 29.87 in NE 1.2 mph   81 % 0.00 in
04:22 71.3 °F 65.2 °F 29.87 in Calm     81 % 0.00 in
04:27 71.1 °F 65.3 °F 29.87 in Calm     82 % 0.00 in
04:32 71.0 °F 65.2 °F 29.87 in Calm     82 % 0.00 in
04:37 71.0 °F 65.2 °F 29.87 in Calm     82 % 0.00 in
04:42 70.8 °F 65.0 °F 29.87 in Calm     82 % 0.00 in
04:47 70.7 °F 64.9 °F 29.87 in Calm     82 % 0.00 in
04:52 70.6 °F 64.8 °F 29.87 in Calm     82 % 0.00 in
04:57 70.6 °F 64.8 °F 29.87 in Calm     82 % 0.00 in
05:02 70.4 °F 65.0 °F 29.87 in Calm     83 % 0.00 in
05:07 70.3 °F 64.9 °F 29.87 in Calm     83 % 0.00 in
05:12 70.2 °F 64.8 °F 29.87 in Calm     83 % 0.00 in
05:17 70.1 °F 64.7 °F 29.88 in Calm     83 % 0.00 in
05:22 70.0 °F 64.6 °F 29.88 in Calm     83 % 0.00 in
05:27 70.0 °F 64.2 °F 29.87 in Calm     82 % 0.00 in
05:32 69.9 °F 64.2 °F 29.88 in Calm     82 % 0.00 in
05:37 69.9 °F 64.2 °F 29.88 in Calm     82 % 0.00 in
05:42 69.8 °F 64.4 °F 29.88 in Calm     83 % 0.00 in
05:47 69.8 °F 64.4 °F 29.88 in Calm     83 % 0.00 in
05:52 69.7 °F 64.3 °F 29.88 in Calm     83 % 0.00 in
05:57 69.5 °F 64.1 °F 29.88 in NE 1.0 mph 1.0 mph 83 % 0.00 in
06:02 69.4 °F 64.4 °F 29.88 in NE 1.2 mph   84 % 0.00 in
06:07 69.4 °F 64.4 °F 29.89 in Calm     84 % 0.00 in
06:12 69.4 °F 64.0 °F 29.88 in NE 1.0 mph 1.0 mph 83 % 0.00 in
06:17 69.3 °F 63.9 °F 29.88 in NE 1.2 mph   83 % 0.00 in
06:22 69.3 °F 63.9 °F 29.89 in Calm     83 % 0.00 in
06:27 69.3 °F 63.9 °F 29.89 in NE 1.2 mph   83 % 0.00 in
06:28 69.3 °F 63.9 °F 29.89 in Calm     83 % 0.00 in
06:33 69.4 °F 64.0 °F 29.89 in Calm     83 % 0.00 in
06:38 69.5 °F 64.1 °F 29.89 in Calm     83 % 0.00 in
06:43 69.7 °F 64.0 °F 29.89 in Calm     82 % 0.00 in
06:48 69.9 °F 64.2 °F 29.89 in NE 1.2 mph 1.2 mph 82 % 0.00 in
06:53 70.4 °F 64.3 °F 29.89 in NE 1.0 mph 1.0 mph 81 % 0.00 in
06:58 70.9 °F 64.4 °F 29.90 in NE 1.2 mph 1.2 mph 80 % 0.00 in
07:03 71.2 °F 64.0 °F 29.90 in NE 1.2 mph 1.2 mph 78 % 0.00 in
07:08 71.9 °F 64.3 °F 29.90 in NE 1.2 mph 1.2 mph 77 % 0.00 in
07:13 73.0 °F 64.6 °F 29.90 in Calm     75 % 0.00 in
07:18 74.0 °F 64.8 °F 29.90 in Calm     73 % 0.00 in
07:23 74.9 °F 64.9 °F 29.90 in Calm     71 % 0.00 in
07:28 75.7 °F 65.2 °F 29.90 in SE 1.2 mph 1.2 mph 70 % 0.00 in
07:33 76.0 °F 64.2 °F 29.90 in SE 3.5 mph 3.5 mph 67 % 0.00 in
07:38 76.3 °F 64.5 °F 29.90 in ESE 2.3 mph 2.3 mph 67 % 0.00 in
07:43 76.5 °F 63.9 °F 29.90 in SE 2.3 mph 2.3 mph 65 % 0.00 in
07:48 77.1 °F 64.0 °F 29.90 in South 1.2 mph 1.2 mph 64 % 0.00 in
07:53 77.6 °F 64.0 °F 29.90 in Calm   0.2 mph 63 % 0.00 in
07:58 78.1 °F 64.0 °F 29.90 in ESE 1.2 mph 1.2 mph 62 % 0.00 in
08:03 78.7 °F 64.1 °F 29.90 in SE 3.0 mph 3.0 mph 61 % 0.00 in
08:08 79.0 °F 63.4 °F 29.91 in ESE 3.5 mph 3.5 mph 59 % 0.00 in
08:13 79.8 °F 63.7 °F 29.91 in East 1.2 mph 1.2 mph 58 % 0.00 in
08:18 80.4 °F 64.3 °F 29.91 in East 2.3 mph 2.3 mph 58 % 0.00 in
08:23 80.6 °F 64.0 °F 29.90 in ESE 4.6 mph 4.6 mph 57 % 0.00 in
08:28 81.3 °F 64.1 °F 29.91 in East 2.3 mph 2.3 mph 56 % 0.00 in
08:33 81.9 °F 63.6 °F 29.90 in SSE 2.3 mph 2.3 mph 54 % 0.00 in
08:38 81.8 °F 63.0 °F 29.90 in East 4.6 mph 4.6 mph 53 % 0.00 in
08:43 81.7 °F 64.0 °F 29.90 in South 2.3 mph 2.3 mph 55 % 0.00 in
08:48 82.2 °F 63.9 °F 29.90 in SSE 1.2 mph   54 % 0.00 in
08:53 82.8 °F 63.9 °F 29.90 in South 3.5 mph 3.5 mph 53 % 0.00 in
08:58 83.2 °F 64.8 °F 29.90 in ESE 1.2 mph   54 % 0.00 in
09:03 83.9 °F 64.4 °F 29.90 in SE 1.2 mph 1.2 mph 52 % 0.00 in
09:08 84.4 °F 64.3 °F 29.90 in ENE 2.0 mph 2.0 mph 51 % 0.00 in
09:13 84.4 °F 64.3 °F 29.89 in East 2.3 mph 2.3 mph 51 % 0.00 in
09:18 84.8 °F 63.5 °F 29.89 in SE 2.3 mph 2.3 mph 49 % 0.00 in
09:23 85.4 °F 64.1 °F 29.89 in ESE 2.3 mph 2.3 mph 49 % 0.00 in
09:28 85.7 °F 63.1 °F 29.89 in SSE 3.5 mph 3.5 mph 47 % 0.00 in
09:33 85.7 °F 63.8 °F 29.89 in SE 2.0 mph 2.0 mph 48 % 0.00 in
09:38 85.9 °F 64.5 °F 29.89 in South 3.5 mph 3.5 mph 49 % 0.00 in
09:43 86.5 °F 62.6 °F 29.89 in SSE 5.8 mph 5.8 mph 45 % 0.00 in
09:48 86.9 °F 62.4 °F 29.89 in SE 3.5 mph 3.5 mph 44 % 0.00 in
09:53 87.1 °F 64.4 °F 29.89 in ESE 3.5 mph 3.5 mph 47 % 0.00 in
09:59 87.4 °F 63.5 °F 29.89 in SSE 3.5 mph 3.5 mph 45 % 0.00 in
10:04 87.6 °F 63.6 °F 29.89 in NNW 1.2 mph 1.2 mph 45 % 0.00 in
10:09 87.8 °F 64.4 °F 29.89 in SE 3.5 mph 3.5 mph 46 % 0.00 in
10:14 88.1 °F 63.4 °F 29.89 in SE 2.3 mph 2.3 mph 44 % 0.00 in
10:19 88.3 °F 63.6 °F 29.89 in SSE 3.5 mph 3.5 mph 44 % 0.00 in
10:24 88.8 °F 64.1 °F 29.89 in South 1.2 mph 1.2 mph 44 % 0.00 in
10:29 89.0 °F 63.6 °F 29.89 in NNW 1.2 mph 1.2 mph 43 % 0.00 in
10:34 88.6 °F 63.9 °F 29.89 in SSE 3.5 mph 3.5 mph 44 % 0.00 in
10:39 88.8 °F 63.4 °F 29.89 in NNW 3.0 mph 3.0 mph 43 % 0.00 in
10:44 88.7 °F 64.6 °F 29.89 in SW 3.5 mph 3.5 mph 45 % 0.00 in
10:49 89.0 °F 64.3 °F 29.89 in South 1.2 mph 1.2 mph 44 % 0.00 in
10:54 89.4 °F 64.0 °F 29.89 in East 2.3 mph 2.3 mph 43 % 0.00 in
10:59 89.6 °F 63.5 °F 29.89 in NE 1.2 mph 1.2 mph 42 % 0.00 in
11:04 89.8 °F 65.0 °F 29.89 in North 1.2 mph 1.2 mph 44 % 0.00 in
11:09 90.1 °F 63.9 °F 29.88 in East 3.5 mph 3.5 mph 42 % 0.00 in
11:14 90.2 °F 64.0 °F 29.88 in SSE 3.5 mph 3.5 mph 42 % 0.00 in
11:19 90.4 °F 64.9 °F 29.88 in WNW 2.3 mph 2.3 mph 43 % 0.00 in
11:24 90.4 °F 64.9 °F 29.88 in North 1.2 mph 1.2 mph 43 % 0.00 in
11:29 90.4 °F 64.2 °F 29.88 in NNE 1.2 mph 1.2 mph 42 % 0.00 in
11:34 90.6 °F 64.4 °F 29.88 in SE 3.5 mph 3.5 mph 42 % 0.00 in
11:39 90.5 °F 63.6 °F 29.88 in WNW 1.2 mph 1.2 mph 41 % 0.00 in
11:44 90.7 °F 64.5 °F 29.87 in ESE 3.0 mph 3.0 mph 42 % 0.00 in
11:49 91.2 °F 64.9 °F 29.87 in SE 3.5 mph 3.5 mph 42 % 0.00 in
11:54 91.8 °F 65.4 °F 29.87 in SSE 1.2 mph 1.2 mph 42 % 0.00 in
12:00 91.9 °F 63.4 °F 29.87 in SSE 3.5 mph 3.5 mph 39 % 0.00 in
12:05 92.3 °F 65.2 °F 29.87 in SE 3.5 mph 3.5 mph 41 % 0.00 in
12:10 92.5 °F 65.4 °F 29.87 in SSE 2.3 mph 2.3 mph 41 % 0.00 in
12:15 93.2 °F 66.0 °F 29.87 in South 1.2 mph 1.2 mph 41 % 0.00 in
12:20 93.7 °F 65.0 °F 29.86 in SE 2.3 mph 2.3 mph 39 % 0.00 in
12:25 93.8 °F 65.8 °F 29.86 in ESE 2.3 mph 2.3 mph 40 % 0.00 in
12:30 94.1 °F 66.1 °F 29.86 in NNW 2.3 mph 2.3 mph 40 % 0.00 in
12:31 94.2 °F 66.2 °F 29.86 in NNW 1.2 mph 1.2 mph 40 % 0.00 in
12:36 94.5 °F 66.4 °F 29.86 in NW 2.3 mph 2.3 mph 40 % 0.00 in
12:41 94.5 °F 66.4 °F 29.86 in NNE 2.0 mph 2.0 mph 40 % 0.00 in
12:46 94.6 °F 67.3 °F 29.86 in SW 2.3 mph 2.3 mph 41 % 0.00 in
12:51 94.8 °F 67.4 °F 29.86 in NNW 1.2 mph 1.2 mph 41 % 0.00 in
12:56 94.8 °F 65.2 °F 29.86 in NW 3.5 mph 3.5 mph 38 % 0.00 in
13:01 95.0 °F 66.9 °F 29.85 in West 3.5 mph 3.5 mph 40 % 0.00 in
13:06 95.3 °F 67.9 °F 29.85 in NNE 2.3 mph 2.3 mph 41 % 0.00 in
13:11 95.5 °F 67.3 °F 29.85 in NW 1.2 mph 1.2 mph 40 % 0.00 in
13:16 95.9 °F 66.2 °F 29.85 in NNW 1.2 mph 1.2 mph 38 % 0.00 in
13:21 95.9 °F 64.7 °F 29.84 in NW 3.5 mph 3.5 mph 36 % 0.00 in
13:26 95.8 °F 65.4 °F 29.84 in WNW 2.0 mph 2.0 mph 37 % 0.00 in
13:31 96.0 °F 64.7 °F 29.84 in SE 1.0 mph 1.0 mph 36 % 0.00 in
13:36 96.4 °F 65.1 °F 29.84 in NW 2.0 mph 2.0 mph 36 % 0.00 in
13:41 97.1 °F 65.7 °F 29.83 in East 1.2 mph 1.2 mph 36 % 0.00 in
13:46 97.9 °F 65.6 °F 29.83 in NW 2.3 mph 2.3 mph 35 % 0.00 in
13:51 97.8 °F 65.5 °F 29.83 in NW 2.3 mph 2.3 mph 35 % 0.00 in
13:56 98.0 °F 64.9 °F 29.83 in WNW 2.3 mph 2.3 mph 34 % 0.00 in
14:01 98.1 °F 63.2 °F 29.83 in NNE 3.5 mph 3.5 mph 32 % 0.00 in
14:06 97.7 °F 62.0 °F 29.83 in WNW 2.3 mph 2.3 mph 31 % 0.00 in
14:11 98.0 °F 62.2 °F 29.82 in WNW 1.2 mph 1.2 mph 31 % 0.00 in
14:16 98.2 °F 63.3 °F 29.82 in West 2.3 mph 2.3 mph 32 % 0.00 in
14:22 98.6 °F 63.6 °F 29.82 in South 2.3 mph 2.3 mph 32 % 0.00 in
14:27 99.0 °F 63.1 °F 29.82 in SE 2.3 mph   31 % 0.00 in
14:32 99.4 °F 65.2 °F 29.82 in South 2.3 mph 2.3 mph 33 % 0.00 in
14:37 99.9 °F 66.5 °F 29.82 in WNW 2.3 mph 2.3 mph 34 % 0.00 in
14:42 99.7 °F 64.6 °F 29.82 in Calm     32 % 0.00 in
14:47 99.6 °F 65.4 °F 29.81 in West 2.3 mph 2.3 mph 33 % 0.00 in
14:52 100.0 °F 66.6 °F 29.81 in NW 3.5 mph 3.5 mph 34 % 0.00 in
14:57 100.1 °F 65.8 °F 29.81 in ENE 3.5 mph 3.5 mph 33 % 0.00 in
15:02 100.1 °F 65.8 °F 29.81 in NW 3.0 mph 3.0 mph 33 % 0.00 in
15:07 99.8 °F 67.3 °F 29.80 in West 2.3 mph 2.3 mph 35 % 0.00 in
15:12 100.6 °F 67.1 °F 29.80 in NW 2.3 mph 2.3 mph 34 % 0.00 in
15:17 100.4 °F 63.3 °F 29.80 in NW 4.6 mph 4.6 mph 30 % 0.00 in
15:22 100.0 °F 62.0 °F 29.80 in NW 6.9 mph 6.9 mph 29 % 0.00 in
15:27 99.7 °F 62.7 °F 29.80 in NW 4.6 mph 4.6 mph 30 % 0.00 in
15:32 99.7 °F 63.7 °F 29.79 in NW 4.6 mph 4.6 mph 31 % 0.00 in
15:37 99.5 °F 62.6 °F 29.79 in NW 4.6 mph 4.6 mph 30 % 0.00 in
15:42 99.3 °F 64.2 °F 29.79 in WSW 4.6 mph 4.6 mph 32 % 0.00 in
15:47 99.4 °F 63.4 °F 29.79 in NW 4.6 mph 4.6 mph 31 % 0.00 in
15:52 99.3 °F 64.2 °F 29.79 in North 6.9 mph 6.9 mph 32 % 0.00 in
15:58 99.3 °F 65.1 °F 29.79 in NW 3.5 mph 3.5 mph 33 % 0.00 in
16:03 99.2 °F 65.9 °F 29.78 in North 4.0 mph 4.0 mph 34 % 0.00 in
16:08 99.2 °F 64.2 °F 29.78 in NW 5.0 mph 5.0 mph 32 % 0.00 in
16:13 98.8 °F 64.7 °F 29.78 in North 5.0 mph 5.0 mph 33 % 0.00 in
16:14 98.7 °F 64.6 °F 29.78 in NW 4.6 mph 4.6 mph 33 % 0.00 in
16:19 98.5 °F 65.3 °F 29.78 in NW 4.6 mph 4.6 mph 34 % 0.00 in
16:24 98.5 °F 67.7 °F 29.78 in West 3.5 mph 3.5 mph 37 % 0.00 in
16:29 98.5 °F 65.3 °F 29.78 in NNW 5.8 mph 5.8 mph 34 % 0.00 in
16:34 98.6 °F 66.2 °F 29.78 in NW 6.9 mph 6.9 mph 35 % 0.00 in
16:39 98.6 °F 64.5 °F 29.77 in WNW 5.0 mph 5.0 mph 33 % 0.00 in
16:44 98.8 °F 64.7 °F 29.77 in NNW 3.5 mph 3.5 mph 33 % 0.00 in
16:49 99.2 °F 64.2 °F 29.77 in WNW 3.5 mph 3.5 mph 32 % 0.00 in
16:54 99.2 °F 64.2 °F 29.77 in NW 3.5 mph 3.5 mph 32 % 0.00 in
16:59 99.2 °F 65.0 °F 29.77 in NNW 3.5 mph 3.5 mph 33 % 0.00 in
17:00 99.3 °F 65.1 °F 29.77 in NW 3.5 mph 3.5 mph 33 % 0.00 in
17:05 99.3 °F 64.2 °F 29.77 in WNW 4.6 mph 4.6 mph 32 % 0.00 in
17:10 99.5 °F 64.4 °F 29.76 in NW 3.5 mph 3.5 mph 32 % 0.00 in
17:15 99.5 °F 62.6 °F 29.76 in WNW 3.5 mph 3.5 mph 30 % 0.00 in
17:20 99.2 °F 63.3 °F 29.76 in NW 6.0 mph 6.0 mph 31 % 0.00 in
17:25 99.3 °F 63.3 °F 29.76 in NNE 3.5 mph 3.5 mph 31 % 0.00 in
17:30 99.3 °F 62.4 °F 29.76 in NW 4.6 mph 4.6 mph 30 % 0.00 in
17:35 99.5 °F 63.5 °F 29.76 in WSW 3.5 mph 3.5 mph 31 % 0.00 in
17:40 99.4 °F 62.5 °F 29.76 in WNW 4.6 mph 4.6 mph 30 % 0.00 in
17:45 99.4 °F 64.3 °F 29.76 in NW 3.0 mph 3.0 mph 32 % 0.00 in
17:50 99.5 °F 63.5 °F 29.76 in NNW 3.5 mph 3.5 mph 31 % 0.00 in
17:55 99.6 °F 62.7 °F 29.75 in NNW 3.5 mph 3.5 mph 30 % 0.00 in
18:00 99.7 °F 62.7 °F 29.75 in NW 4.0 mph 4.0 mph 30 % 0.00 in
18:05 99.7 °F 61.8 °F 29.75 in NW 4.6 mph 4.6 mph 29 % 0.00 in
18:10 99.5 °F 62.6 °F 29.75 in NW 2.3 mph 2.3 mph 30 % 0.00 in
18:15 99.5 °F 62.6 °F 29.75 in North 2.3 mph 2.3 mph 30 % 0.00 in
18:20 99.6 °F 62.7 °F 29.75 in NW 3.0 mph 3.0 mph 30 % 0.00 in
18:25 99.4 °F 61.5 °F 29.75 in NNE 3.5 mph 3.5 mph 29 % 0.00 in
18:30 99.4 °F 61.5 °F 29.75 in WNW 2.3 mph 2.3 mph 29 % 0.00 in
18:35 99.3 °F 61.4 °F 29.75 in West 3.5 mph 3.5 mph 29 % 0.00 in
18:40 98.8 °F 61.0 °F 29.75 in NNW 3.5 mph 3.5 mph 29 % 0.00 in
18:45 98.7 °F 59.9 °F 29.75 in NW 4.6 mph 4.6 mph 28 % 0.00 in
18:50 98.4 °F 61.6 °F 29.75 in WNW 2.3 mph 2.3 mph 30 % 0.00 in
18:55 98.0 °F 61.3 °F 29.75 in WNW 4.0 mph 4.0 mph 30 % 0.00 in
19:00 97.5 °F 61.8 °F 29.75 in WNW 3.5 mph 3.5 mph 31 % 0.00 in
19:05 97.1 °F 61.4 °F 29.75 in WSW 3.5 mph 3.5 mph 31 % 0.00 in
19:10 96.7 °F 62.9 °F 29.75 in NW 2.3 mph 2.3 mph 33 % 0.00 in
19:15 96.1 °F 62.3 °F 29.75 in NW 1.2 mph 1.2 mph 33 % 0.00 in
19:20 95.5 °F 62.7 °F 29.75 in NW 1.2 mph 1.2 mph 34 % 0.00 in
19:25 95.0 °F 63.9 °F 29.75 in Calm     36 % 0.00 in
19:26 95.0 °F 63.1 °F 29.75 in NW 1.2 mph 1.2 mph 35 % 0.00 in
19:31 94.5 °F 63.4 °F 29.75 in NW 1.2 mph 1.2 mph 36 % 0.00 in
19:36 94.1 °F 62.3 °F 29.75 in NW 1.2 mph 1.2 mph 35 % 0.00 in
19:41 93.7 °F 61.1 °F 29.76 in NW 2.3 mph 2.3 mph 34 % 0.00 in
19:46 93.4 °F 60.8 °F 29.76 in NW 1.2 mph 1.2 mph 34 % 0.00 in
19:51 92.9 °F 61.2 °F 29.76 in NW 1.2 mph 1.2 mph 35 % 0.00 in
19:56 92.5 °F 60.9 °F 29.76 in Calm     35 % 0.00 in
20:01 92.1 °F 60.5 °F 29.76 in NW 1.2 mph   35 % 0.00 in
20:06 91.8 °F 61.0 °F 29.76 in Calm     36 % 0.00 in
20:11 91.5 °F 60.8 °F 29.76 in Calm     36 % 0.00 in
20:16 91.1 °F 61.2 °F 29.76 in NW 1.2 mph 1.2 mph 37 % 0.00 in
20:21 91.0 °F 61.1 °F 29.76 in NW 1.2 mph 1.2 mph 37 % 0.00 in
20:26 90.7 °F 60.8 °F 29.76 in NW 1.2 mph 1.2 mph 37 % 0.00 in
20:31 90.4 °F 61.3 °F 29.76 in NW 1.2 mph 1.2 mph 38 % 0.00 in
20:36 90.1 °F 61.1 °F 29.77 in NW 1.0 mph 1.0 mph 38 % 0.00 in
20:41 89.9 °F 60.9 °F 29.77 in Calm     38 % 0.00 in
20:46 89.6 °F 62.1 °F 29.77 in Calm     40 % 0.00 in
20:51 89.0 °F 61.5 °F 29.77 in Calm     40 % 0.00 in
20:56 88.5 °F 61.8 °F 29.77 in Calm     41 % 0.00 in
21:01 87.9 °F 61.9 °F 29.77 in Calm     42 % 0.00 in
21:06 87.2 °F 63.3 °F 29.77 in Calm     45 % 0.00 in
21:11 86.7 °F 62.8 °F 29.77 in Calm     45 % 0.00 in
21:16 86.5 °F 63.3 °F 29.78 in Calm     46 % 0.00 in
21:17 86.5 °F 62.6 °F 29.78 in Calm     45 % 0.00 in
21:22 86.4 °F 63.8 °F 29.78 in Calm     47 % 0.00 in
21:27 85.8 °F 63.2 °F 29.77 in Calm     47 % 0.00 in
21:33 85.3 °F 63.4 °F 29.77 in Calm     48 % 0.00 in
21:38 85.1 °F 63.2 °F 29.77 in Calm     48 % 0.00 in
21:43 85.1 °F 64.4 °F 29.77 in Calm     50 % 0.00 in
21:48 85.1 °F 62.6 °F 29.78 in Calm     47 % 0.00 in
21:53 85.4 °F 62.3 °F 29.78 in Calm     46 % 0.00 in
21:58 85.7 °F 62.5 °F 29.78 in Calm     46 % 0.00 in
22:03 85.6 °F 62.4 °F 29.78 in Calm     46 % 0.00 in
22:08 85.5 °F 63.0 °F 29.78 in Calm     47 % 0.00 in
22:13 85.4 °F 62.3 °F 29.78 in Calm     46 % 0.00 in
22:18 85.4 °F 62.3 °F 29.78 in Calm     46 % 0.00 in
22:23 85.3 °F 62.2 °F 29.78 in Calm     46 % 0.00 in
22:28 85.2 °F 62.1 °F 29.78 in Calm     46 % 0.00 in
22:33 84.6 °F 63.3 °F 29.78 in Calm     49 % 0.00 in
22:38 83.9 °F 63.3 °F 29.78 in Calm     50 % 0.00 in
22:43 83.5 °F 62.9 °F 29.78 in Calm     50 % 0.00 in
22:48 83.0 °F 62.4 °F 29.78 in Calm     50 % 0.00 in
22:53 82.6 °F 62.6 °F 29.78 in Calm     51 % 0.00 in
22:58 82.2 °F 62.3 °F 29.78 in Calm     51 % 0.00 in
23:03 82.3 °F 61.8 °F 29.78 in Calm     50 % 0.00 in
23:08 82.4 °F 62.5 °F 29.79 in Calm     51 % 0.00 in
23:13 82.3 °F 62.4 °F 29.79 in Calm     51 % 0.00 in
23:18 82.0 °F 62.6 °F 29.79 in Calm     52 % 0.00 in
23:23 81.5 °F 63.3 °F 29.79 in Calm     54 % 0.00 in
23:28 81.1 °F 62.9 °F 29.79 in Calm     54 % 0.00 in
23:33 80.7 °F 63.0 °F 29.79 in Calm     55 % 0.00 in
23:38 80.2 °F 62.0 °F 29.79 in Calm     54 % 0.00 in
23:43 79.7 °F 63.1 °F 29.79 in Calm     57 % 0.00 in
23:48 79.2 °F 63.1 °F 29.79 in Calm     58 % 0.00 in
23:53 78.7 °F 63.6 °F 29.79 in Calm     60 % 0.00 in
23:58 78.1 °F 63.6 °F 29.79 in Calm     61 % 0.00 in
Park Place, Exeter, Tulare County, California, USA
Compliments of Weather Underground - 2.75 mb